Regional Weather Roundup
Issued by NWS Sterling, VA

Home | Current Version | Previous Version | Text Only | Print | Product List | Glossary On
Versions: 1 2 3 4 5 6 7 8 9 10 11 12 13 14 15 16 17 18 19 20 21 22 23 24 25 26 27 28 29 30 31 32 33 34 35 36 37 38 39 40 41 42 43 44 45 46 47 48 49 50
000
ASUS41 KLWX 270910
RWRLWX

REGIONAL WEATHER ROUNDUP
NATIONAL WEATHER SERVICE BALTIMORE MD/WASHINGTON DC
500 AM EDT WED AUG 27 2014

Note: "FAIR" indicates few or no clouds below 12,000 feet
with no significant weather and/or obstructions to visibility.
 TC=TEMPERATURE CELSIUS

 * =Non NWS site. Station does not report precipitation (e.g. rain,
    snow, etc.), thunder, or fog.

DCZ001-MDZ009-015-VAZ040>042-051-053>054-271000-
WASHINGTON METRO
  /KDAA//-FT BELVOIR

CITY           SKY/WX    TMP DP  RH WIND       PRES   REMARKS
WASHINGTON NAT PTCLDY    71  65  81 CALM      30.05S
DULLES         CLEAR     61  60  97 CALM      30.06S
ANDREWS AFB    CLEAR     61  61 100 CALM      30.05F
QUANTICO       CLEAR     65  62  90 NW5       30.06R
COLLEGE PARK*  CLEAR     63  63 100 CALM      30.05S
LEESBURG*      CLEAR     63  63 100 CALM      30.07S
MANASSAS*      CLOUDY    61  61 100 CALM      30.05F VSB 1/2
GAITHERSBURG*  CLEAR     61  57  88 CALM      30.10S

$$

MDZ006>007-011-014-271000-
BALTIMORE METRO

CITY           SKY/WX    TMP DP  RH WIND       PRES   REMARKS
BWI AIRPORT    PTCLDY    63  61  93 CALM      30.04S
MD SCIENCE CTR   N/A     71  63  75 MISG      30.05S
MARTIN STATE   CLEAR     64  64 100 CALM      30.06S
ANNAPOLIS      CLEAR     67  64  90 W3        30.04F
FORT MEADE*    CLEAR     59  55  88 CALM      30.07F

$$

MDZ012-015-019>023-271000-
MARYLAND EASTERN SHORE

CITY           SKY/WX    TMP DP  RH WIND       PRES   REMARKS
OCEAN CITY     CLOUDY    59  57  93 NW3       30.06R
SALISBURY      FOG       61  57  88 CALM      30.06S VSB 1/2
BAY BRIDGE AP*   N/A     66  64  94 CALM      30.05S
CAMBRIDGE*     CLOUDY    61  59  94 CALM      30.05F VSB 1/2
EASTON*        CLEAR     62  62 100 CALM      30.09R

$$

MDZ017>025-271000-
SOUTHERN MARYLAND

CITY           SKY/WX    TMP DP  RH WIND       PRES   REMARKS
PATUXENT RIVER CLEAR     59  58  96 CALM      30.05S
ST INIGOES     CLEAR     59  56  89 CALM      30.05S
LEONARDTOWN*   CLEAR     61  59  94 CALM      30.07S

$$

MDZ003>005-271000-
NORTH CENTRAL MARYLAND

CITY           SKY/WX    TMP DP  RH WIND       PRES   REMARKS
FREDERICK*     CLEAR    N/A N/A N/A CALM      30.10R FOG
HAGERSTOWN APT CLEAR     63  60  90 E6        30.08S
WESTMINSTER*   CLEAR     63  61  94 N3        30.08R

$$

MDZ501>502-271000-
WESTERN MARYLAND

CITY           SKY/WX    TMP DP  RH WIND       PRES   REMARKS
OAKLAND*       CLEAR     63  59  88 W5        30.18S
CUMBERLAND*    CLEAR     59  54  82 CALM      30.14S

$$

VAZ025>031-271000-
SHENANDOAH VALLEY

CITY           SKY/WX    TMP DP  RH WIND       PRES   REMARKS
WINCHESTER*    CLEAR     61  59  94 CALM      30.09R
STAUNTON*      CLEAR     54  52  94 CALM      30.13S

$$

WVZ021-048>050-054>055-271000-
EASTERN WEST VIRGINIA PANHANDLE

CITY           SKY/WX    TMP DP  RH WIND       PRES   REMARKS
MARTINSBURG    CLEAR     59  55  87 CALM      30.09R
PETERSBURG*    NOT AVBL

$$

VAZ036>039-050-271000-
CENTRAL FOOTHILLS

CITY           SKY/WX    TMP DP  RH WIND       PRES   REMARKS
CHARLOTTESVILL CLEAR     59  57  93 S3        30.07S
ORANGE*        CLEAR     57  55  94 CALM      30.07S

$$

VAZ055>057-271000-
NORTH AND CENTRAL PIEDMONT

CITY           SKY/WX    TMP DP  RH WIND       PRES   REMARKS
FREDERICKSBRG* CLEAR     61  61 100 CALM      30.05S FOG
STAFFORD*      FOG       59  59 100 CALM      30.09S VSB 1/2

$$

NCZ024-NYZ072-PAZ021-071-VAZ022-071-271000-
OTHER REGIONAL OBSERVATIONS

CITY           SKY/WX    TMP DP  RH WIND       PRES   REMARKS
NEW YORK CITY  CLEAR     70  62  76 CALM      30.05F
PHILADELPHIA   CLEAR     69  61  75 SW3       30.05S
PITTSBURGH     MOCLDY    68  63  84 CALM      30.09F
ROANOKE        CLEAR     59  56  89 W3        30.13R
RICHMOND       CLEAR     62  58  86 CALM      30.06S
RALEIGH        PTCLDY    59  57  93 CALM      30.07R

$$

ANZ530>537-271000-
MARINE OBSERVATIONS

STATION/POSITION TIME  TEMP    WIND        PRES
                       AIR SEA DIR/SP/G
                 (UTC) (F)     (DEG/KT/KT) (MB)
THOMAS PT LIGHT  0900   71 78  220/  4/  5 1018.5S
BALT KEY BRIDGE  0900   77     240/  1/  2 1017.2S
COVE POINT       0900   71     220/  4/  4 1017.4F
LEWISETTA        0900   67 77  260/  3/  4 1017.4S
SOLOMONS ISLAND  0900      79                N/A
PINEY POINT      0900          250/  3/  4   N/A

$$




USA.gov is the U.S. government's official web portal to all federal, state and local government web resources and services.